Regional Weather Roundup
Issued by NWS Upton, NY

Current Version | Previous Version | Text Only | Print | Product List | Glossary On
Versions: 1 2 3 4 5 6 7 8 9 10 11 12 13 14 15 16 17 18 19 20 21 22 23 24 25 26 27
000
ASUS41 KOKX 300109
RWROKX

REGIONAL WEATHER ROUNDUP
NATIONAL WEATHER SERVICE NEW YORK NY
900 PM EDT MON MAY 29 2017

NOTE: "FAIR" INDICATES FEW OR NO CLOUDS BELOW 12,000 FEET WITH NO
SIGNIFICANT WEATHER AND/OR OBSTRUCTIONS TO VISIBILITY.

NYZ071-072-176-178-NJZ106-104-300200-
NEW YORK CITY METRO AREA

CITY           SKY/WX    TMP DP  RH WIND       PRES   REMARKS
Central Park   CLOUDY    57  54  89 CALM      30.09S
Wall St Helipt CLOUDY    59  55  87 E3        30.08R
Bronx Bot Gard   N/A     55  52  88 N1        30.09R
LaGuardia APRT CLOUDY    58  53  84 E9        30.07R
Kennedy INTL   CLOUDY    57  56  96 E9        30.08S
Breezy Point     N/A     54 N/A N/A SE9         N/A
Newark/Liberty CLOUDY    57  53  86 SE6       30.06F
Teterboro      CLOUDY    57  52  83 NE3       30.06F
$$

NYZ177-179-078>081-300200-
LONG ISLAND NEW YORK

CITY           SKY/WX    TMP DP  RH WIND       PRES   REMARKS
Jones Beach      N/A     54 N/A N/A E7G13       N/A
Matinecock PT  NOT AVBL
Farmingdale    CLOUDY    56  53  90 E3        30.08S
MacArthur/ISP  CLOUDY    55  53  93 NE5       30.08R
Shirley        CLOUDY    55  55 100 CALM      30.09R
Mt Sinai Harb    N/A    N/A N/A N/A MISG        N/A
Westhampton    CLOUDY    54  51  90 E3        30.10S
East Hampton   CLOUDY    52  50  93 NE5       30.09S
Montauk          N/A     53  51  93 NE7       30.11R
$$

NYZ052-065-067-300200-
HUDSON VALLEY

CITY           SKY/WX    TMP DP  RH WIND       PRES   REMARKS
White Plains   CLOUDY    54  51  90 E5        30.07S
Larchmont Harb   N/A     55 N/A N/A NE8         N/A
Croton O-T Hud   N/A     55 N/A N/A E5          N/A
Newburgh       CLOUDY    55  54  94 S6        30.07F
Montgomery     CLOUDY    57  53  86 CALM      30.05S
Poughkeepsie   CLOUDY    57  51  80 SE3       30.06S
Albany         CLOUDY    57  50  77 SE8       30.04R
$$

NJZ001-105-106-008-010-013-015-019>022-104-300200-
NEW JERSEY

CITY           SKY/WX    TMP DP  RH WIND       PRES   REMARKS
Newark/Liberty CLOUDY    57  53  86 SE6       30.06F
Teterboro      CLOUDY    57  52  83 NE3       30.06F
Caldwell       CLOUDY    57  52  83 E3        30.07S
Somerville     CLOUDY    59  52  77 CALM      30.04R
Linden         CLOUDY    57  52  84 SE7       30.07R
Perth Amboy      N/A     55 N/A N/A SE14        N/A
Sussex         CLOUDY    57  53  86 CALM      30.06S
Andover          N/A     56  52  86 CALM      30.05S
Trenton        CLOUDY    58  53  84 SE10      30.05R
Millville      CLOUDY    59  57  93 E8        30.04R
Atlantic City  MOCLDY    57  52  83 E12       30.04S
Wrightstown    CLOUDY    56  52  88 E8        30.03S
Toms River     CLOUDY    56  53  90 VRB6      30.07R
Belmar         CLOUDY    55  52  89 E10       30.08S
$$

PAZ047>061-062-071-300200-
EASTERN PENNSYLVANIA

CITY           SKY/WX    TMP DP  RH WIND       PRES   REMARKS
Philadelphia   CLOUDY    61  56  83 E12       30.03S
Allentown      CLOUDY    59  55  87 E9        30.04R
Scranton       CLOUDY    60  57  89 MISG      30.00S
$$

CTZ002-004>006-009-010-012-RIZ004-006-007-MAZ004-011-015-300200-
SOUTHERN NEW ENGLAND
 IN CT

CITY           SKY/WX    TMP DP  RH WIND       PRES   REMARKS
Bradley INTL   MOCLDY    55  51  86 SE6       30.09S
Hartford       CLOUDY    56  51  84 SE6       30.09S
Danbury        CLOUDY    54  52  93 SE5       30.09S
Wtrbury/Oxford CLOUDY    54  48  82 CALM      30.10R
Bridgeport     CLOUDY    57  52  83 E5        30.09S
Meriden        CLOUDY    55  51  86 CALM      30.09R
New Haven      CLOUDY    56  53  90 CALM      30.09S
Chester        CLOUDY    54  52  94 NE5       30.09S
Groton         CLOUDY    54  50  86 NE8       30.10R
Wilimantic     CLOUDY    54  50  86 NE5       30.12R

 IN RI

CITY           SKY/WX    TMP DP  RH WIND       PRES   REMARKS
Providence     DRIZZLE   51  51 100 NE7       30.12R FOG
Block Island   CLOUDY    52  50  93 N7        30.11R
Westerly       CLOUDY    53  51  93 N6        30.11R
 IN MA

CITY           SKY/WX    TMP DP  RH WIND       PRES   REMARKS
Boston         CLOUDY    50  48  93 NE9       30.13S
Worcester      CLOUDY    47  45  93 E5        30.11S FOG
Westfield      CLOUDY    54  52  94 CALM      30.10R
Provincetown   CLOUDY    49  48  97 NE9       30.12R
Nantucket      CLOUDY    50  49  96 NE13      30.08R
$$

ANZ330-335-338-340-345-350-353-355-300200-
COASTAL MARINE OBSERVATIONS


STATION/POSITION TIME  SKY/WX   TEMP    WIND        PRES    VSBY  WAVE
                                AIR SEA DIR/SP/G                  HT/PER
                 (UTC)          (F)     (DEG/KT/KT) (MB)    (MI)  (FT/S)
NY HARB ENTRANCE 2350            55 57   90/ 12/ 14 1018.3          5/ 7
20 S FIRE ISLAND 2350            54 56   70/ 14/ 16 1017.8          6/ 7
GREAT SOUTH BAY  0030            56 63  110/  6/ 10   N/A
23 SSW MONTAUK P 2350            53 54              1018.7          6/ 7
15 E BARNEGAT LI 0030               59                N/A           6/ 8
HUDSON CANYON    2350            53 53   50/ 14/ 16 1017.6          7/ 8
KINGS POINT      0024            56 59   90/  4/  5 1018.1
EXECUTION ROCKS  0030            57      50/  4/  8   N/A
CENTRAL LI SOUND NOT AVBL
EASTERN LI SOUND NOT AVBL
ROBBINS REEF     0024            58     140/  8/  9 1018.5
$$


>>>>>>>>>>>>>>>>>>>>>>>>>>>> KEY <<<<<<<<<<<<<<<<<<<<<<<<<<<
>                                                          <
>     SKY/WX - Sky Condition/Present Weather               <
>     TMP    - Temperature in Fahrenheit                   <
>     DP     - Dew Point in Fahrenheit                     <
>     RH     - Relative Humidity in Percent                <
>     WIND   - Direction (from) and Speed in MPH           <
>     PRES   - Mean Sea Level Pressure (inches of Hg)      <
>     WCI    - Wind Chill Index                            <
>     VSB    - VISIBILITY IN MILES                         <
>     HX     - HEAT INDEX                                  <
>     TC     - TEMPERATURE IN CELSIUS                      <
>     VRB    - VARIABLE WIND DIRECTION                     <
>                                                          <
>>>>>>>>>>>>>>>>>>>>>>>>>>>> KEY <<<<<<<<<<<<<<<<<<<<<<<<<<<




USA.gov is the U.S. government's official web portal to all federal, state and local government web resources and services.